Location: Schommer Observatory
(40.5200°N, 74.4500°W)
Time: 12:35:46
(UTC-05:00)

OTV 5 (USA 277) - Visible Passes

Search period start: 12 November 2018 00:00
Search period end: 22 November 2018 00:00
Orbit: 335 x 353 km, 54.6° (Epoch: 08 November)

Date Brightness Start Highest point End Pass type
(mag) Time Alt. Az. Time Alt. Az. Time Alt. Az.
12 Nov ? 17:20:21 10° NNW 17:23:01 30° NE 17:25:40 10° E visible
12 Nov ? 18:55:31 10° WNW 18:57:10 19° WSW 18:57:10 19° WSW visible
13 Nov ? 17:43:47 10° NW 17:46:45 81° SW 17:49:38 10° SE visible
14 Nov ? 18:07:54 10° WNW 18:10:14 21° SW 18:12:33 10° S visible
16 Nov ? 17:20:17 10° WNW 17:22:40 22° SW 17:25:02 10° S visible
